星链-33794 (STARLINK-33794)

导读 | 豆包AI

STARLINK-33794是美国SpaceX公司星链星座的成员卫星,于2025年5月4日发射入轨。星链项目旨在构建低轨巨型卫星星座,为全球提供高速宽带互联网服务,尤其改善偏远地区网络覆盖。作为星链规模化部署的一部分,该卫星运行于近地轨道,依靠星座组网实现全球信号覆盖,进一步扩充了星链系统的服务能力,推动全球卫星互联网基础设施建设。

基本信息
目录编号:
63820
目录名称:
STARLINK-33794
国际标识:
2025-092S
轨道中心:
EARTH
卫星名称:
星链-33794
卫星全名:
星链-33794 (STARLINK-33794)
卫星状态:
在轨 (已飞行360 天)
发射日期:
2025-05-04 UTC
国别 :
美国 (US)
星等 :
--
轨道信息
数据来源 国际轨道数据
星历时间: 2026-04-29T16:55:05+0800
11小时前
查看轨道信息
半长轴: 6861.153km
偏心率: 0.0000969
轨道倾角: 42.998°
近地点辐角 285.397°
升交点赤经 246.505°
平近点角 74.677°
近地点: 482.351km
远地点: 483.681km
周期: 94.266分钟
每日圈数: 15.275913
详细信息
固有亮度:
5
最大亮度:
2.5
卫星平台:
Starlink V1.0
覆盖范围:
全球
运营商:
太空探索技术公司
运营商所在国:
美国
制造商(研发单位):
太空探索技术公司
制造商所在国:
美国
使用方式:
暂无
卫星简介
Starlink 计划是 SpaceX 推出的全球卫星互联网项目,通过发射低轨道卫星,为全球尤其是偏远地区提供高速、低延迟的互联网服务。自 2019 年起,Starlink 已部署数千颗卫星,旨在缩小全球数字鸿沟,推动互联网普及。该项目还为军事、航空等行业提供通信支持,带来广泛经济效益。
2D轨道图
3D轨道图
轨道高度分析图
轨道倾角分析图
轨道综合分析图
查看轨道综合分析图